Find Interbol-2

NORAD ID: 24293 Int'l Des: 1996-050 Owner: IKI/TSSKBP Country: RU operational
MEOELLIPTICALHEO_ELLIPTICALMOLNIYA_TYPE

实时位置

正在加载3D地球...

关于 Interbol-2

正在加载描述...

即将过境

Passes for default location (London). Set your location on the main map for personalized predictions.

高度历史

Loading altitude history...

两行轨道根数

1 24293U 96050C 26103.43940034 .00000070 00000-0 00000-0 0 9996
2 24293 62.6688 188.7106 5585097 268.7216 30.3052 4.14738456448630
Epoch: Apr 13, 2026 • Age: 86 hours

当前状态

高度 1593.8 km
速度 8.70 km/s
星下点 -42.56°S, 61.36°W
发射日期 Aug 29, 1996
运行时间 29.6 years
类型 other

技术详情

分类 Payload
质量 1302.00 kg
干质量 1302.00 kg
总质量 1302.00 kg
长度 1.00 m
直径 2.00 m
跨度 6.00 m
形状 Cyl + 4 Pan + 2 Ant
制造商 NPOL
平台类型 SO-M
阶段状态 Unknown Transfer Status
所有者/国家 IKI/TSSKBP/RU

Most Searched